GW0339 Weather Reports


time (UTC)temp
F
wind
direction
speed
knots
gust
knots
rain 1hr
in
rain 24hr
in
rain mn
in
humidity
%
barometer
mb
20260504045115 64 344 10.4 20.9 0.00 0.00 0.00 60 1011.1
20260504044614 64 310 9.6 20.0 0.00 0.00 0.00 60 1011.2
20260504044138 64 319 10.4 20.0 0.00 0.00 0.00 59 1011.2
20260503220805 58 338 8.7 17.4 0.00 0.00 0.00 77 1013.0
20260503220305 58 348 8.7 17.4 0.00 0.00 0.00 77 1013.0
20260503215804 57 355 8.7 15.6 0.00 0.00 0.00 78 1012.9
20260503215305 57 9 7.0 15.6 0.00 0.00 0.00 79 1012.9
20260503214807 57 5 7.0 13.9 0.00 0.00 0.00 79 1012.9
20260503214304 57 335 7.0 13.9 0.00 0.00 0.00 79 1012.8
20260503213805 57 346 7.0 15.6 0.00 0.00 0.00 79 1013.0
20260503213305 57 341 7.0 15.6 0.00 0.00 0.00 79 1013.0
20260503212805 57 342 7.8 13.9 0.00 0.00 0.00 79 1013.0
20260503212305 57 355 7.0 13.9 0.00 0.00 0.00 79 1013.0
20260503211804 57 329 7.0 15.6 0.00 0.00 0.00 78 1012.9
20260503211305 57 345 7.0 15.6 0.00 0.00 0.00 78 1012.9
20260503211140 57 355 7.0 13.0 0.00 0.00 0.00 77 1012.8
20260503202749 57 317 5.2 10.4 0.00 0.00 0.00 76 1012.8
20260503202249 57 37 4.3 10.4 0.00 0.00 0.00 77 1012.7
20260503201749 57 344 4.3 10.4 0.00 0.00 0.00 77 1012.7
20260503201248 57 355 4.3 8.7 0.00 0.00 0.00 78 1012.6
20260503200758 57 340 4.3 8.7 0.00 0.00 0.00 78 1012.5
20260503194837 56 314 4.3 9.6 0.00 0.00 0.00 79 1012.5
20260503194832 56 350 5.2 9.6 0.00 0.00 0.00 79 1012.4
20260503192250 56 347 4.3 11.3 0.00 0.00 0.00 79 1012.8
20260503191759 57 17 5.2 10.4 0.00 0.00 0.00 80 1012.7
20260503191303 57 355 4.3 10.4 0.00 0.00 0.00 80 1012.9
20260503190752 57 351 4.3 10.4 0.00 0.00 0.00 80 1013.0
20260503190520 57 355 4.3 12.2 0.00 0.00 0.00 80 1013.0
20260503190241 57 30 5.2 12.2 0.00 0.00 0.00 80 1012.9
20260503190021 57 30 5.2 12.2 0.00 0.00 0.00 80 1012.9
20260503185753 57 30 5.2 12.2 0.00 0.00 0.00 80 1012.9
20260503185246 56 13 5.2 11.3 0.00 0.00 0.00 81 1013.0
20260503184749 56 350 5.2 11.3 0.00 0.00 0.00 81 1013.0
20260503184512 56 347 4.3 11.3 0.00 0.00 0.00 81 1013.1
20260503183805 56 355 4.3 9.6 0.00 0.00 0.00 81 1013.1
20260503183257 56 355 4.3 8.7 0.00 0.00 0.00 81 1013.0
20260503182749 56 331 4.3 8.7 0.00 0.00 0.00 81 1013.1
20260503182252 56 345 4.3 11.3 0.00 0.00 0.00 82 1013.2
20260503181744 56 20 4.3 11.3 0.00 0.00 0.00 82 1013.1
20260503181247 56 333 4.3 7.8 0.00 0.00 0.00 82 1013.1
20260503181022 56 350 3.5 7.8 0.00 0.00 0.00 82 1013.1
20260503180258 56 11 3.5 12.2 0.00 0.00 0.00 82 1013.2
20260503175800 56 355 3.5 12.2 0.00 0.00 0.00 83 1013.3
20260503175243 56 5 3.5 10.4 0.00 0.00 0.00 83 1013.3
20260503174751 56 326 2.6 9.6 0.00 0.00 0.00 83 1013.4
20260503174239 56 5 2.6 8.7 0.00 0.00 0.00 83 1013.6
20260503173810 56 34 2.6 8.7 0.00 0.00 0.00 83 1013.6
20260503173506 56 5 2.6 5.2 0.00 0.00 0.00 83 1013.6
20260503173253 56 5 2.6 5.2 0.00 0.00 0.00 83 1013.6
20260503172758 56 326 2.6 4.3 0.00 0.00 0.00 83 1013.7
20260503172248 56 32 2.6 4.3 0.00 0.00 0.00 83 1013.7
20260503171738 56 22 2.6 6.1 0.00 0.00 0.00 83 1013.7
20260503171249 56 5 2.6 6.1 0.00 0.00 0.00 83 1013.8
20260503170748 56 19 2.6 5.2 0.00 0.00 0.00 83 1013.8
20260503170500 56 22 2.6 7.0 0.00 0.00 0.00 83 1013.8
20260503150715 57 350 6.1 11.3 0.00 0.00 0.00 82 1013.9
20260503150158 57 340 6.1 12.2 0.00 0.00 0.00 82 1013.9
20260503131223 59 5 4.3 9.6 0.00 0.00 0.32 82 1014.8
20260503130455 59 355 4.3 10.4 0.00 0.00 0.32 81 1014.8
20260503130232 59 355 5.2 10.4 0.00 0.00 0.32 81 1014.8
20260503080816 61 351 0.9 4.3 0.00 0.00 0.32 66 1013.1
20260503080309 61 349 1.7 4.3 0.00 0.00 0.32 65 1013.0
20260503072727 63 310 2.6 7.8 0.00 0.00 0.32 62 1012.8
20260503072221 63 9 2.6 7.0 0.00 0.00 0.32 61 1012.8
20260503072028 63 333 3.5 7.8 0.00 0.00 0.32 61 1012.9
20260503071249 64 317 3.5 9.6 0.00 0.00 0.32 59 1012.9
20260503070703 64 0 2.6 9.6 0.00 0.00 0.32 58 1012.9
20260503070157 64 344 2.6 7.8 0.00 0.00 0.32 58 1012.8